Tracking 17996 objects as of 26-February-2017
HD Live streaming from Space Station
objects crossing your sky now

SL-12 R/B(AUX MOTOR)

Track SL-12 R/B(AUX MOTOR) now!


NORAD ID: 25053
Int'l Code: 1997-070E
Perigee: 1,068.6 km
Apogee: 33,093.7 km
Inclination: 45.5 °
Period: 595.7 minutes
Semi major axis: 23452 km
RCS: 0.8237 m2 (medium)
Launch date: November 12, 1997
Source: Commonwealth of Independent States (former USSR) (CIS)
Launch site: TYURATAM MISSILE AND SPACE COMPLEX (TTMTR)

Note: This is a ROCKET BODY
Your satellite tracking list
Your tracking list is empty





NASA's NSSDC Master Catalog

Two Line Element Set (TLE):
1 25053U 97070E   17056.60077029 -.00000056  00000-0 -85680-2 0  9990
2 25053  45.5488 167.5943 6827768 131.8013 310.8647  2.41729028169715
Source of the keplerian elements: AFSPC